Location: Madden
(51.3728°N, 114.3297°W)
Time: 04:05:21
(UTC+00:00)

AO-85 - Visible Passes

Search period start: 07 December 2023 00:00
Search period end: 17 December 2023 00:00
Orbit: 516 x 753 km, 64.8° (Epoch: 04 January)

Date Brightness Start Highest point End Pass type
(mag) Time Alt. Az. Time Alt. Az. Time Alt. Az.
07 Dec ? 01:23:22 10° NNW 01:26:32 19° NNE 01:26:41 19° NNE visible
07 Dec ? 03:03:03 10° NW 03:03:59 16° NNW 03:03:59 16° NNW visible
08 Dec ? 00:02:56 10° NNW 00:05:17 14° N 00:07:43 10° NE visible
08 Dec ? 01:43:02 10° NNW 01:46:07 25° NNE 01:46:07 25° NNE visible
08 Dec ? 03:22:47 10° NW 03:23:26 14° NW 03:23:26 14° NW visible
09 Dec ? 00:22:53 10° NNW 00:25:39 16° NNE 00:28:19 11° NE visible
09 Dec ? 02:02:40 10° NNW 02:05:38 32° N 02:05:38 32° N visible
09 Dec ? 03:42:39 10° NW 03:42:56 12° NW 03:42:56 12° NW visible
10 Dec ? 00:42:38 10° NNW 00:45:56 20° NNE 00:47:54 16° NE visible
10 Dec ? 02:22:19 10° NW 02:25:13 38° NNW 02:25:13 38° NNW visible
11 Dec ? 01:02:16 10° NNW 01:06:06 28° NNE 01:07:36 23° ENE visible
11 Dec ? 02:42:03 10° NW 02:44:55 39° NW 02:44:55 39° NW visible
12 Dec ? 01:21:53 10° NNW 01:26:07 41° NE 01:27:27 33° ENE visible
12 Dec ? 03:01:56 10° NW 03:04:47 32° W 03:04:47 32° W visible
13 Dec ? 00:01:50 10° NNW 00:05:15 21° NNE 00:08:50 10° ENE visible
13 Dec ? 01:41:32 10° NW 01:46:02 69° NE 01:47:32 42° ESE visible
13 Dec ? 03:22:08 10° WNW 03:24:53 22° W 03:24:53 22° W visible
14 Dec ? 00:21:27 10° NNW 00:25:23 30° NNE 00:29:32 10° E visible
14 Dec ? 02:01:16 10° NW 02:05:47 69° SW 02:07:57 32° SSE visible
14 Dec ? 03:43:16 10° W 03:45:09 12° WSW 03:45:20 12° WSW visible
15 Dec ? 00:41:03 10° NW 00:45:22 46° NE 00:49:58 10° ESE visible
15 Dec ? 02:21:11 10° NW 02:25:25 37° WSW 02:28:59 15° S visible
16 Dec ? 01:00:41 10° NW 01:05:13 77° NE 01:10:04 10° SE visible
16 Dec ? 02:41:28 10° WNW 02:44:54 21° WSW 02:48:27 10° SSW visible
